AJC8009 EHAM-EDDF

Flight info

Callsign AJC8009
Flight time 0h 56m
Altitude 35000
Route EDUPO Z739 MISGO DCT DIXAT DIXAT1A
Aircraft B77L/H-SDE1E2E3FGHIJ2J3J4J5M1RWXY/LB1D1

Departure

Time 2026-05-05 23:09
Airport Amsterdam Airport Schiphol (EHAM)

Arrival

Time 2026-05-06 00:06
Airport Frankfurt Main Airport (EDDF)
Time Latitude Longitude Altitude Speed Heading
2026-05-05 22:45 52.29626 4.76500 1 ft 0 kts 146°
2026-05-05 22:52 52.29640 4.76485 2 ft 3 kts 146°
2026-05-05 22:53 52.29656 4.76467 2 ft 3 kts 146°
2026-05-05 22:53 52.29672 4.76450 2 ft 3 kts 167°
2026-05-05 22:53 52.29691 4.76450 3 ft 3 kts 211°
2026-05-05 22:53 52.29703 4.76466 3 ft 0 kts 236°
2026-05-05 22:57 52.29693 4.76441 2 ft 12 kts 240°
2026-05-05 22:57 52.29641 4.76256 1 ft 19 kts 240°
2026-05-05 22:57 52.29571 4.76071 1 ft 19 kts 237°
2026-05-05 22:57 52.29512 4.75878 1 ft 19 kts 249°
2026-05-05 22:58 52.29455 4.75682 1 ft 19 kts 243°
2026-05-05 22:58 52.29492 4.75499 0 ft 19 kts 323°
2026-05-05 22:58 52.29603 4.75378 3 ft 19 kts 328°
2026-05-05 22:58 52.29725 4.75281 2 ft 20 kts 350°
2026-05-05 22:59 52.29843 4.75182 2 ft 20 kts 311°
2026-05-05 22:59 52.29936 4.75013 2 ft 20 kts 313°
2026-05-05 22:59 52.30027 4.74842 2 ft 20 kts 311°
2026-05-05 22:59 52.30120 4.74672 2 ft 20 kts 312°
2026-05-05 23:00 52.30303 4.74332 2 ft 20 kts 312°
2026-05-05 23:00 52.30415 4.74205 2 ft 20 kts 346°
2026-05-05 23:00 52.30552 4.74201 2 ft 20 kts
2026-05-05 23:01 52.30690 4.74214 2 ft 20 kts
2026-05-05 23:01 52.30829 4.74223 2 ft 20 kts
2026-05-05 23:01 52.30968 4.74238 2 ft 20 kts
2026-05-05 23:01 52.31106 4.74250 2 ft 20 kts
2026-05-05 23:02 52.31245 4.74263 2 ft 20 kts
2026-05-05 23:02 52.31382 4.74275 2 ft 20 kts
2026-05-05 23:02 52.31519 4.74289 2 ft 20 kts
2026-05-05 23:02 52.31658 4.74306 5 ft 20 kts
2026-05-05 23:03 52.31800 4.74320 0 ft 22 kts
2026-05-05 23:03 52.31951 4.74328 -1 ft 22 kts 357°
2026-05-05 23:03 52.32034 4.74161 -1 ft 22 kts 268°
2026-05-05 23:03 52.32036 4.73913 2 ft 22 kts 276°
2026-05-05 23:04 52.32050 4.73669 5 ft 22 kts 272°
2026-05-05 23:04 52.32068 4.73425 6 ft 22 kts 289°
2026-05-05 23:04 52.32165 4.73244 4 ft 22 kts 318°
2026-05-05 23:04 52.32275 4.73071 1 ft 22 kts 321°
2026-05-05 23:05 52.32390 4.72970 1 ft 18 kts 303°
2026-05-05 23:05 52.32489 4.72784 1 ft 25 kts 319°
2026-05-05 23:05 52.32622 4.72580 2 ft 27 kts 315°
2026-05-05 23:05 52.32756 4.72366 4 ft 27 kts 313°
2026-05-05 23:06 52.32883 4.72136 2 ft 28 kts 312°
2026-05-05 23:06 52.33010 4.71902 2 ft 28 kts 310°
2026-05-05 23:06 52.33123 4.71688 3 ft 18 kts 307°
2026-05-05 23:06 52.33128 4.71500 4 ft 18 kts 236°
2026-05-05 23:07 52.33036 4.71358 3 ft 20 kts 221°
2026-05-05 23:07 52.32929 4.71204 2 ft 21 kts 223°
2026-05-05 23:07 52.32864 4.71001 1 ft 21 kts 268°
2026-05-05 23:07 52.32933 4.70893 0 ft 0 kts 359°
2026-05-05 23:08 52.32991 4.70897 -1 ft 35 kts
2026-05-05 23:09 52.33638 4.70954 7 ft 149 kts
2026-05-05 23:09 52.34857 4.71058 748 ft 183 kts
2026-05-05 23:09 52.36143 4.71135 2002 ft 199 kts
2026-05-05 23:09 52.37489 4.71279 3243 ft 190 kts
2026-05-05 23:10 52.38812 4.71417 4336 ft 191 kts
2026-05-05 23:10 52.40161 4.71546 5248 ft 197 kts
2026-05-05 23:10 52.41547 4.71724 5834 ft 197 kts 13°
2026-05-05 23:10 52.42804 4.72486 6002 ft 195 kts 27°
2026-05-05 23:11 52.44013 4.73552 6129 ft 198 kts 29°
2026-05-05 23:11 52.45209 4.74646 6341 ft 201 kts 30°
2026-05-05 23:11 52.46544 4.75876 6427 ft 240 kts 31°
2026-05-05 23:11 52.47796 4.77837 6400 ft 254 kts 61°
2026-05-05 23:12 52.48230 4.80638 6424 ft 261 kts 84°
2026-05-05 23:12 52.48363 4.83646 6423 ft 269 kts 83°
2026-05-05 23:12 52.48512 4.86697 6511 ft 269 kts 83°
2026-05-05 23:12 52.48497 4.89700 7284 ft 273 kts 100°
2026-05-05 23:13 52.47666 4.92528 8352 ft 281 kts 128°
2026-05-05 23:13 52.46187 4.94669 9360 ft 289 kts 144°
2026-05-05 23:13 52.44539 4.96558 10333 ft 295 kts 145°
2026-05-05 23:13 52.42845 4.98469 11445 ft 298 kts 145°
2026-05-05 23:14 52.41127 5.00412 12449 ft 302 kts 145°
2026-05-05 23:14 52.39394 5.02393 13414 ft 309 kts 145°
2026-05-05 23:14 52.37626 5.04426 14400 ft 312 kts 144°
2026-05-05 23:14 52.35849 5.06476 15378 ft 314 kts 144°
2026-05-05 23:15 52.34078 5.08519 16327 ft 318 kts 144°
2026-05-05 23:15 52.32387 5.10854 17233 ft 320 kts 133°
2026-05-05 23:15 52.30899 5.13585 18198 ft 323 kts 129°
2026-05-05 23:15 52.29443 5.16410 19015 ft 327 kts 130°
2026-05-05 23:16 52.27948 5.19236 19859 ft 331 kts 131°
2026-05-05 23:16 52.26413 5.22062 20648 ft 335 kts 133°
2026-05-05 23:16 52.24845 5.24911 21500 ft 338 kts 133°
2026-05-05 23:16 52.23340 5.27888 22366 ft 343 kts 128°
2026-05-05 23:17 52.21944 5.31076 23138 ft 349 kts 127°
2026-05-05 23:17 52.20545 5.34342 23879 ft 353 kts 127°
2026-05-05 23:17 52.19150 5.37586 24597 ft 355 kts 127°
2026-05-05 23:17 52.17727 5.40888 25358 ft 357 kts 127°
2026-05-05 23:18 52.16297 5.44203 26133 ft 359 kts 127°
2026-05-05 23:18 52.15139 5.46892 26759 ft 359 kts 127°
2026-05-05 23:18 52.13950 5.49643 27445 ft 360 kts 127°
2026-05-05 23:18 52.12465 5.52924 28120 ft 359 kts 135°
2026-05-05 23:19 52.10458 5.55341 28630 ft 363 kts 153°
2026-05-05 23:19 52.08178 5.57316 28791 ft 382 kts 150°
2026-05-05 23:19 52.06014 5.59903 28916 ft 401 kts 138°
2026-05-05 23:19 52.04133 5.63392 29063 ft 421 kts 127°
2026-05-05 23:20 52.02562 5.67515 29204 ft 438 kts 121°
2026-05-05 23:20 52.01161 5.71997 29373 ft 452 kts 118°
2026-05-05 23:20 51.99763 5.76636 29718 ft 461 kts 118°
2026-05-05 23:20 51.98266 5.81265 30146 ft 464 kts 123°
2026-05-05 23:21 51.96496 5.85626 30693 ft 462 kts 128°
2026-05-05 23:21 51.94470 5.89667 30851 ft 461 kts 133°
2026-05-05 23:21 51.90222 5.97361 30853 ft 455 kts 133°
2026-05-05 23:22 51.86202 6.04763 30868 ft 456 kts 132°
2026-05-05 23:22 51.82011 6.12483 30865 ft 457 kts 133°
2026-05-05 23:23 51.77793 6.20184 30860 ft 458 kts 133°
2026-05-05 23:23 51.73574 6.27884 30858 ft 458 kts 133°
2026-05-05 23:24 51.69387 6.35523 30852 ft 456 kts 133°
2026-05-05 23:24 51.65186 6.43164 30850 ft 454 kts 133°
2026-05-05 23:25 51.60994 6.50757 30847 ft 453 kts 133°
2026-05-05 23:25 51.56804 6.58328 30828 ft 453 kts 133°
2026-05-05 23:26 51.52636 6.65841 30827 ft 453 kts 133°
2026-05-05 23:26 51.48441 6.73381 30828 ft 453 kts 133°
2026-05-05 23:27 51.44243 6.80909 30822 ft 453 kts 133°
2026-05-05 23:27 51.40055 6.88449 30820 ft 453 kts 131°
2026-05-05 23:28 51.36151 6.96271 30828 ft 453 kts 129°
2026-05-05 23:28 51.32359 7.03925 30826 ft 454 kts 129°
2026-05-05 23:29 51.28283 7.11602 30822 ft 454 kts 136°
2026-05-05 23:29 51.23294 7.17759 30817 ft 454 kts 147°
2026-05-05 23:30 51.17738 7.22296 30719 ft 452 kts 153°
2026-05-05 23:30 51.14916 7.24467 30120 ft 449 kts 153°
2026-05-05 23:30 51.12132 7.26652 29458 ft 443 kts 153°
2026-05-05 23:31 51.09402 7.28865 28746 ft 438 kts 152°
2026-05-05 23:31 51.06716 7.31096 28053 ft 433 kts 152°
2026-05-05 23:31 51.04058 7.33304 27333 ft 430 kts 152°
2026-05-05 23:31 51.01404 7.35499 26501 ft 430 kts 152°
2026-05-05 23:32 50.98777 7.37662 25536 ft 422 kts 152°
2026-05-05 23:32 50.96203 7.39777 24578 ft 411 kts 153°
2026-05-05 23:32 50.93720 7.41816 23711 ft 403 kts 153°
2026-05-05 23:32 50.91259 7.43836 22721 ft 396 kts 153°
2026-05-05 23:33 50.88855 7.45804 22016 ft 386 kts 153°
2026-05-05 23:33 50.86398 7.47813 21525 ft 409 kts 153°
2026-05-05 23:33 50.83816 7.49920 20950 ft 426 kts 153°
2026-05-05 23:33 50.81187 7.52065 20343 ft 424 kts 154°
2026-05-05 23:34 50.78577 7.54193 19752 ft 419 kts 154°
2026-05-05 23:34 50.76009 7.56287 19185 ft 415 kts 154°
2026-05-05 23:34 50.73499 7.58329 18627 ft 410 kts 154°
2026-05-05 23:34 50.70973 7.60380 18068 ft 406 kts 154°
2026-05-05 23:35 50.68499 7.62387 17476 ft 401 kts 154°
2026-05-05 23:35 50.66047 7.64373 16980 ft 396 kts 154°
2026-05-05 23:35 50.63612 7.66344 16500 ft 391 kts 154°
2026-05-05 23:35 50.61215 7.68281 16026 ft 389 kts 154°
2026-05-05 23:36 50.58709 7.70303 15569 ft 387 kts 154°
2026-05-05 23:36 50.56422 7.72146 15151 ft 386 kts 155°
2026-05-05 23:36 50.54060 7.74046 14730 ft 385 kts 155°
2026-05-05 23:36 50.51689 7.75952 14289 ft 384 kts 155°
2026-05-05 23:37 50.49314 7.77861 13867 ft 383 kts 155°
2026-05-05 23:37 50.46951 7.79757 13426 ft 382 kts 155°
2026-05-05 23:37 50.44633 7.81635 12949 ft 380 kts 153°
2026-05-05 23:37 50.42406 7.83814 12532 ft 379 kts 146°
2026-05-05 23:38 50.40344 7.86351 12198 ft 375 kts 143°
2026-05-05 23:38 50.38328 7.88894 11841 ft 372 kts 144°
2026-05-05 23:38 50.36317 7.91417 11492 ft 367 kts 144°
2026-05-05 23:38 50.34347 7.93877 11162 ft 358 kts 144°
2026-05-05 23:39 50.32414 7.96275 10819 ft 351 kts 144°
2026-05-05 23:39 50.30515 7.98625 10495 ft 345 kts 144°
2026-05-05 23:39 50.28838 8.00695 10211 ft 339 kts 144°
2026-05-05 23:39 50.27027 8.02929 9891 ft 332 kts 144°
2026-05-05 23:40 50.25417 8.05327 9747 ft 319 kts 132°
2026-05-05 23:40 50.24164 8.07938 9733 ft 305 kts 129°
2026-05-05 23:40 50.22951 8.10515 9631 ft 288 kts 130°
2026-05-05 23:40 50.21765 8.12991 9481 ft 281 kts 130°
2026-05-05 23:41 50.20586 8.15420 9397 ft 280 kts 130°
2026-05-05 23:41 50.19405 8.17834 9302 ft 280 kts 131°
2026-05-05 23:41 50.18224 8.20235 9234 ft 279 kts 131°
2026-05-05 23:41 50.17045 8.22626 9148 ft 279 kts 131°
2026-05-05 23:42 50.15864 8.25018 9066 ft 279 kts 131°
2026-05-05 23:42 50.14694 8.27385 8960 ft 278 kts 131°
2026-05-05 23:42 50.13514 8.29766 8932 ft 277 kts 131°
2026-05-05 23:42 50.12343 8.32121 8938 ft 274 kts 131°
2026-05-05 23:43 50.11180 8.34460 8906 ft 276 kts 130°
2026-05-05 23:43 50.10265 8.37108 8843 ft 285 kts 105°
2026-05-05 23:43 50.10290 8.40202 8781 ft 291 kts 75°
2026-05-05 23:43 50.10962 8.43163 8707 ft 290 kts 70°
2026-05-05 23:44 50.11688 8.46120 8621 ft 294 kts 69°
2026-05-05 23:44 50.12418 8.49091 8544 ft 292 kts 70°
2026-05-05 23:44 50.13136 8.52033 8447 ft 289 kts 70°
2026-05-05 23:44 50.13831 8.54899 8364 ft 285 kts 70°
2026-05-05 23:45 50.14527 8.57793 8273 ft 285 kts 70°
2026-05-05 23:45 50.15217 8.60677 8204 ft 284 kts 70°
2026-05-05 23:45 50.15904 8.63560 8133 ft 283 kts 70°
2026-05-05 23:45 50.16588 8.66437 8047 ft 283 kts 70°
2026-05-05 23:46 50.17274 8.69327 7954 ft 284 kts 70°
2026-05-05 23:46 50.17959 8.72215 7874 ft 284 kts 70°
2026-05-05 23:46 50.18644 8.75105 7796 ft 284 kts 70°
2026-05-05 23:46 50.19319 8.77957 7715 ft 284 kts 70°
2026-05-05 23:47 50.20002 8.80850 7630 ft 284 kts 71°
2026-05-05 23:47 50.20684 8.83747 7543 ft 284 kts 70°
2026-05-05 23:47 50.21366 8.86647 7462 ft 284 kts 70°
2026-05-05 23:47 50.22046 8.89541 7385 ft 284 kts 71°
2026-05-05 23:48 50.22718 8.92409 7303 ft 284 kts 71°
2026-05-05 23:48 50.23397 8.95307 7209 ft 283 kts 71°
2026-05-05 23:48 50.24072 8.98192 7138 ft 283 kts 71°
2026-05-05 23:48 50.24702 9.00891 7056 ft 282 kts 71°
2026-05-05 23:49 50.25374 9.03771 6983 ft 282 kts 71°
2026-05-05 23:49 50.26030 9.06588 6899 ft 281 kts 71°
2026-05-05 23:49 50.26693 9.09437 6826 ft 280 kts 71°
2026-05-05 23:49 50.27361 9.12296 6742 ft 280 kts 71°
2026-05-05 23:50 50.28022 9.15151 6668 ft 279 kts 70°
2026-05-05 23:50 50.28679 9.17990 6581 ft 279 kts 71°
2026-05-05 23:50 50.29333 9.20825 6497 ft 279 kts 71°
2026-05-05 23:50 50.29989 9.23674 6422 ft 278 kts 70°
2026-05-05 23:51 50.30647 9.26518 6349 ft 278 kts 70°
2026-05-05 23:51 50.31291 9.29304 6256 ft 278 kts 71°
2026-05-05 23:51 50.31946 9.32153 6179 ft 278 kts 71°
2026-05-05 23:51 50.32599 9.34993 6094 ft 277 kts 70°
2026-05-05 23:52 50.33172 9.37845 5997 ft 271 kts 83°
2026-05-05 23:52 50.32974 9.40666 5971 ft 267 kts 115°
2026-05-05 23:52 50.31933 9.43040 5904 ft 266 kts 142°
2026-05-05 23:52 50.30346 9.44444 5820 ft 260 kts 167°
2026-05-05 23:53 50.28581 9.44621 5739 ft 253 kts 193°
2026-05-05 23:53 50.26973 9.43644 5699 ft 248 kts 213°
2026-05-05 23:53 50.25710 9.41859 5602 ft 244 kts 233°
2026-05-05 23:53 50.24786 9.39647 5530 ft 243 kts 238°
2026-05-05 23:54 50.23926 9.37428 5460 ft 243 kts 238°
2026-05-05 23:54 50.23046 9.35182 5409 ft 244 kts 238°
2026-05-05 23:54 50.22149 9.32925 5317 ft 245 kts 238°
2026-05-05 23:54 50.21341 9.30597 5249 ft 244 kts 247°
2026-05-05 23:55 50.20766 9.28105 5192 ft 244 kts 250°
2026-05-05 23:55 50.20217 9.25598 5099 ft 243 kts 250°
2026-05-05 23:55 50.19666 9.23145 5036 ft 236 kts 250°
2026-05-05 23:55 50.19124 9.20740 4990 ft 233 kts 249°
2026-05-05 23:56 50.18584 9.18382 4935 ft 234 kts 249°
2026-05-05 23:56 50.18043 9.16044 4852 ft 237 kts 249°
2026-05-05 23:56 50.17482 9.13627 4780 ft 238 kts 249°
2026-05-05 23:56 50.16915 9.11192 4693 ft 237 kts 249°
2026-05-05 23:57 50.16361 9.08817 4634 ft 230 kts 249°
2026-05-05 23:57 50.15826 9.06524 4551 ft 224 kts 249°
2026-05-05 23:57 50.15293 9.04248 4497 ft 222 kts 249°
2026-05-05 23:57 50.14772 9.02023 4428 ft 213 kts 249°
2026-05-05 23:58 50.14283 8.99937 4370 ft 195 kts 249°
2026-05-05 23:58 50.13850 8.98026 4331 ft 182 kts 249°
2026-05-05 23:58 50.13422 8.96177 4274 ft 181 kts 249°
2026-05-05 23:58 50.12991 8.94343 4223 ft 181 kts 249°
2026-05-05 23:59 50.12555 8.92498 4165 ft 180 kts 249°
2026-05-05 23:59 50.12128 8.90698 4092 ft 181 kts 249°
2026-05-05 23:59 50.11692 8.88861 4033 ft 181 kts 249°
2026-05-05 23:59 50.11259 8.87040 4001 ft 178 kts 249°
2026-05-06 00:00 50.10840 8.85279 3936 ft 166 kts 249°
2026-05-06 00:00 50.10467 8.83705 3727 ft 144 kts 248°
2026-05-06 00:00 50.10136 8.82312 3532 ft 133 kts 248°
2026-05-06 00:00 50.09812 8.80954 3377 ft 135 kts 249°
2026-05-06 00:01 50.09486 8.79583 3205 ft 135 kts 248°
2026-05-06 00:01 50.09162 8.78220 3024 ft 134 kts 249°
2026-05-06 00:01 50.08843 8.76880 2840 ft 132 kts 249°
2026-05-06 00:01 50.08529 8.75557 2661 ft 128 kts 249°
2026-05-06 00:02 50.08224 8.74278 2507 ft 128 kts 248°
2026-05-06 00:02 50.07918 8.72991 2344 ft 128 kts 248°
2026-05-06 00:02 50.07611 8.71703 2164 ft 126 kts 248°
2026-05-06 00:02 50.07307 8.70427 1983 ft 125 kts 248°
2026-05-06 00:03 50.07002 8.69146 1820 ft 128 kts 248°
2026-05-06 00:03 50.06689 8.67830 1652 ft 130 kts 248°
2026-05-06 00:03 50.06375 8.66510 1470 ft 131 kts 247°
2026-05-06 00:03 50.06064 8.65206 1291 ft 128 kts 247°
2026-05-06 00:04 50.05750 8.63888 1109 ft 132 kts 246°
2026-05-06 00:04 50.05425 8.62523 933 ft 136 kts 248°
2026-05-06 00:04 50.05102 8.61158 751 ft 135 kts 248°
2026-05-06 00:04 50.04781 8.59805 566 ft 133 kts 248°
2026-05-06 00:05 50.04148 8.57160 368 ft 115 kts 245°
2026-05-06 00:05 50.03894 8.56132 358 ft 86 kts 250°
2026-05-06 00:05 50.03732 8.55440 360 ft 54 kts 251°
2026-05-06 00:06 50.03689 8.55044 355 ft 31 kts 279°
2026-05-06 00:06 50.03718 8.54782 356 ft 19 kts 279°
2026-05-06 00:06 50.03719 8.54586 358 ft 18 kts 255°
2026-05-06 00:06 50.03695 8.54477 352 ft 5 kts 250°
2026-05-06 00:07 50.03698 8.54408 360 ft 11 kts 308°
2026-05-06 00:07 50.03795 8.54311 360 ft 19 kts 302°
2026-05-06 00:07 50.03777 8.54128 355 ft 17 kts 251°
2026-05-06 00:07 50.03745 8.53991 358 ft 15 kts 250°
2026-05-06 00:08 50.03704 8.53822 355 ft 19 kts 249°
2026-05-06 00:08 50.03666 8.53615 357 ft 21 kts 284°
2026-05-06 00:08 50.03681 8.53395 355 ft 23 kts 250°
2026-05-06 00:08 50.03694 8.53266 354 ft 2 kts 326°
2026-05-06 00:09 50.03707 8.53250 360 ft 4 kts 320°
2026-05-06 00:09 50.03745 8.53228 358 ft 4 kts 339°
2026-05-06 00:09 50.03746 8.53228 357 ft 0 kts 339°
2026-05-06 00:09 50.03749 8.53226 356 ft 0 kts 341°